Weather History for KDCU - December, 2013

Change the Weather History Date:

Thursday, December 26, 2013

  Actual Average Record
Temperature  
Mean Temperature 36 °F -  
Max Temperature 48 °F 45 °F 72 °F (1987)
Min Temperature 23 °F 28 °F -2 °F (1983)
Degree Days  
Heating Degree Days 30    
Moisture  
Dew Point 26 °F    
Average Humidity 75    
Maximum Humidity 96    
Minimum Humidity 50    
Precipitation  
Precipitation 0.00 in - - ()
Sea Level Pressure  
Sea Level Pressure 30.39 in    
Wind  
Wind Speed 3 mph (North)    
Max Wind Speed 8 mph    
Max Gust Speed -    
Visibility 9 miles    
Events      
Averages and records for this station are not official NWS values.
T = Trace of Precipitation, MM = Missing Value Source: NWS Daily Summary

Daily Weather History Graph

Daily Weather History Graph

Search for Another Location

Airport or City:

Trip Planner

Search our weather history database for the weather conditions in past years. The results will help you decide how hot, cold, wet, or windy it might be!

Date:

Astronomy

Dec. 26, 2013 Rise Set
Actual Time 6:53 AM CST 4:43 PM CST
Civil Twilight 6:25 AM CST 5:11 PM CST
Nautical Twilight 5:53 AM CST 5:43 PM CST
Astronomical Twilight 5:22 AM CST 6:14 PM CST
Moon 12:32 AM CST (12/26) 12:09 PM CST (12/26)
Length of Visible Light 10h 46m
Length of Day
9h 50m
Last Quarter, 38% of the Moon is Illuminated
Dec 26
Last Quarter
Jan 1
New
Jan 7
First Quarter
Jan 15
Full
Jan 23
Last Quarter

Hourly Weather History & Observations

Time (CST) Temp. Windchill Dew Point Humidity Pressure Visibility Wind Dir Wind Speed Gust Speed Precip Events Conditions
12:53 AM 25.0 °F 17.1 °F 23.0 °F 92% 30.36 in 10.0 mi North 6.9 mph - N/A   Clear
1:53 AM 26.1 °F - 23.0 °F 88% 30.37 in 10.0 mi Calm Calm - N/A   Clear
2:53 AM 26.1 °F - 23.0 °F 88% 30.38 in 9.0 mi Calm Calm - N/A   Clear
4:53 AM 25.0 °F - 23.0 °F 92% 30.38 in 8.0 mi Calm Calm - N/A   Clear
5:53 AM 23.0 °F - 21.9 °F 96% 30.39 in 8.0 mi Calm Calm - N/A   Clear
6:53 AM 23.0 °F - 21.0 °F 92% 30.41 in 8.0 mi Calm Calm - N/A   Clear
7:23 AM 23.0 °F - 21.2 °F 93% 30.40 in 7.0 mi Calm Calm - N/A   Partly Cloudy
7:53 AM 27.0 °F - 25.0 °F 92% 30.43 in 7.0 mi Calm Calm - N/A   Partly Cloudy
8:53 AM 35.1 °F - 30.9 °F 85% 30.43 in 9.0 mi Calm Calm - N/A   Clear
9:53 AM 39.9 °F 36.7 °F 30.0 °F 68% 30.43 in 10.0 mi Variable 4.6 mph - N/A   Clear
10:53 AM 45.0 °F - 30.9 °F 58% 30.42 in 10.0 mi Calm Calm - N/A   Clear
11:53 AM 46.9 °F - 32.0 °F 56% 30.40 in 10.0 mi North 4.6 mph - N/A   Clear
12:53 PM 48.0 °F - 32.0 °F 54% 30.37 in 10.0 mi Variable 3.5 mph - N/A   Clear
1:53 PM 48.0 °F - 32.0 °F 54% 30.35 in 10.0 mi Variable 3.5 mph - N/A   Clear
2:53 PM 48.9 °F - 32.0 °F 52% 30.35 in 10.0 mi West 8.1 mph - N/A   Clear
3:53 PM 48.0 °F - 30.0 °F 50% 30.35 in 10.0 mi North 6.9 mph - N/A   Clear
4:53 PM 43.0 °F - 28.9 °F 58% 30.37 in 10.0 mi Calm Calm - N/A   Clear
5:53 PM 37.0 °F 33.3 °F 27.0 °F 67% 30.38 in 10.0 mi NNE 4.6 mph - N/A   Clear
6:53 PM 34.0 °F 28.8 °F 26.1 °F 73% 30.39 in 10.0 mi NNE 5.8 mph - N/A   Clear
7:53 PM 30.9 °F 26.2 °F 26.1 °F 82% 30.40 in 10.0 mi NNE 4.6 mph - N/A   Clear
8:53 PM 32.0 °F 28.7 °F 26.1 °F 79% 30.39 in 10.0 mi NNE 3.5 mph - N/A   Clear
9:53 PM 30.9 °F - 24.1 °F 76% 30.40 in 10.0 mi Calm Calm - N/A   Clear
10:53 PM 28.0 °F - 23.0 °F 81% 30.40 in 10.0 mi Calm Calm - N/A   Clear
11:53 PM 27.0 °F - 23.0 °F 85% 30.40 in 10.0 mi Calm Calm - N/A   Clear